Location: Auckland
(36.8670°S, 174.7670°E)
Time: 02:21:03
(UTC+12:00)

OTV 5 (USA 277) - Visible Passes

Search period start: 27 June 2019 00:00
Search period end: 07 July 2019 00:00
Orbit: 301 x 333 km, 54.5° (Epoch: 26 June)

Date Brightness Start Highest point End Pass type
(mag) Time Alt. Az. Time Alt. Az. Time Alt. Az.
28 Jun ? 06:03:13 10° N 06:05:27 23° NE 06:07:40 10° ESE visible
29 Jun ? 06:18:11 20° NW 06:19:53 88° ENE 06:22:34 10° SE visible
30 Jun ? 06:33:46 24° WSW 06:34:28 27° SW 06:36:51 10° SSE visible
01 Jul ? 06:48:51 12° SW 06:49:14 12° SSW 06:50:23 10° S visible
